Home   Weather   Mosbach   Past weeks

Flag for Germany Past Weather in Mosbach, Baden-Württemberg, Germany — Yesterday and Last 2 Weeks

Now
41 °F

Passing clouds.


Feels Like: 36 °F
Forecast: 45 / 60 °F
Wind: 8 mph from East

Location: Niederstetten

Current Time: May 1, 2017 at 6:29:56 am

Latest Report: May 1, 2017 at 5:20 am


Visibility: N/A

Pressure: 29.71 "Hg

Humidity: 76%

Dew Point: 34 °F

Location of MosbachLocation

Past Weather in Mosbach — Graph

°F

Mosbach Temperature Yesterday

Maximum temperature yesterday: 59 °F (at 3:20 pm)
Minimum temperature yesterday: 36 °F (at 5:20 am)
Average temperature yesterday: 48 °F

High & Low Weather Summary for the Past Weeks

 TemperatureHumidityPressure
High59 °F (Apr 24, 4:20 pm)100% (Apr 17, 8:20 am)30.54 "Hg (Apr 17, 8:20 am)
Low27 °F (Apr 20, 5:20 am)29% (Apr 24, 5:20 pm)29.68 "Hg (Apr 25, 5:20 am)
Average41 °F70%30.07 "Hg
* Reported Apr 16 5:20 am — May 1 5:20 am, Mosbach, Weather by CustomWeather, © 2017

Note: Actual official high and low records may vary slightly from our data, if they occured in-between our weather recording intervals... More about our weather records

Advertising

Mosbach Weather History for the Previous 24 Hours

Scroll right to see more
 ConditionsComfort  
Time TempWeatherWind HumidityBarometerVisibility
5:20 am
Mon, May 1
41 °FPassing clouds.8 mph76%29.71 "HgN/A
4:20 am41 °FPassing clouds.9 mph76%29.71 "HgN/A
3:20 am45 °FPassing clouds.9 mph66%29.71 "HgN/A
2:20 am45 °FPassing clouds.9 mph71%29.74 "HgN/A
1:20 am46 °FPassing clouds.13 mph66%29.74 "HgN/A
12:20 am46 °FPassing clouds.10 mph66%29.74 "HgN/A
11:20 pm
Sun, Apr 30
45 °FPassing clouds.8 mph71%29.74 "HgN/A
10:20 pm48 °FPassing clouds.7 mph58%29.77 "HgN/A
9:20 pm50 °FPassing clouds.8 mph54%29.77 "HgN/A
8:20 pm54 °FPartly sunny.12 mph47%29.77 "HgN/A
7:20 pm57 °FScattered clouds.14 mph41%29.77 "HgN/A
6:20 pm59 °FPassing clouds.14 mph39%29.80 "HgN/A
5:20 pm59 °FPassing clouds.16 mph36%29.80 "HgN/A
4:20 pm59 °FPassing clouds.17 mph39%29.83 "HgN/A
3:20 pm59 °FPassing clouds.16 mph36%29.86 "HgN/A
2:20 pm57 °FScattered clouds.18 mph39%29.89 "HgN/A
1:20 pm55 °FScattered clouds.18 mph44%29.89 "HgN/A
12:20 pm54 °FPartly sunny.16 mph47%29.92 "HgN/A
11:20 am52 °FScattered clouds.18 mph50%29.95 "HgN/A
10:20 am50 °FPassing clouds.21 mph58%29.95 "HgN/A
9:20 am46 °FPassing clouds.14 mph66%29.98 "HgN/A
8:20 am43 °FPassing clouds.13 mph81%29.98 "HgN/A
7:20 am37 °FChilly.8 mph87%29.98 "HgN/A
6:20 am36 °FChilly.6 mph93%29.98 "HgN/A
Weather by CustomWeather, © 2017

See weather overviewHow to use our weather pages